Stations météo

Publicité
Split/Marjan, Croatie (14445): Température de l'air & dewpoint: 19.06.2018 02:00:00 - 25.06.2018 02:00:00 (CEST)Split/Marjan, Croatie (14445): water temperature: 19.06.2018 02:00:00 - 25.06.2018 02:00:00 (CEST)Split/Marjan, Croatie (14445): Vitesse du vent & gusts: 19.06.2018 02:00:00 - 25.06.2018 02:00:00 (CEST)Split/Marjan, Croatie (14445): Direction du vent: 19.06.2018 02:00:00 - 25.06.2018 02:00:00 (CEST)Split/Marjan, Croatie (14445): reduced air pressure: 19.06.2018 02:00:00 - 25.06.2018 02:00:00 (CEST)Split/Marjan, Croatie (14445): visibility: 19.06.2018 02:00:00 - 25.06.2018 02:00:00 (CEST)
Date & Time tt [°C] td [°C] tw [°C] ff [km/h] ff [knt] fx [km/h] fx [knt] dd ppp [hPa] vv [km]
25.06.2018 02:00:00 - - - - - - - - - -
25.06.2018 01:00:00 - - - - - - - - - -
25.06.2018 00:00:00 - - - - - - - - - -
24.06.2018 23:00:00 21,0 5,6 - 18 10 - - ENE 1015,3 20
24.06.2018 22:00:00 21,7 6,9 - 14 8 - - ENE 1015,3 20
24.06.2018 21:00:00 22,3 11,3 - 7 4 - - ENE 1014,9 45
24.06.2018 20:00:00 22,6 10,4 - 7 4 - - WSW 1014,7 50
24.06.2018 19:00:00 - - - - - - - - - -
24.06.2018 18:00:00 - - - - - - - - - -
24.06.2018 17:00:00 25,5 10,5 - 18 10 - - WSW 1014,8 50
24.06.2018 16:00:00 25,5 9,6 - 22 12 - - WSW 1015,1 50
24.06.2018 15:00:00 26,1 6,6 - 14 8 - - WSW 1015,6 50
24.06.2018 14:00:00 25,3 7,1 22,0 14 8 - - WSW 1015,7 50
24.06.2018 13:00:00 25,0 6,4 - 18 10 - - SW 1016,2 50
24.06.2018 12:00:00 24,8 6,1 - 14 8 - - SSW 1016,5 50
24.06.2018 11:00:00 23,4 3,4 - 11 6 - - ENE 1016,6 50
24.06.2018 10:00:00 22,6 3,5 - 14 8 - - NNE 1016,8 50
24.06.2018 09:00:00 21,2 3,5 - 14 8 - - NNE 1016,9 50
24.06.2018 08:00:00 20,2 3,6 20,5 11 6 - - ENE 1017,0 50
24.06.2018 07:00:00 18,8 3,8 - 25 14 - - NE 1016,4 50
24.06.2018 06:00:00 17,8 3,4 - 14 8 - - NNE 1016,6 50
24.06.2018 05:00:00 18,0 4,2 - 7 4 - - NNE 1016,5 40
24.06.2018 04:00:00 - - - - - - - - - -
24.06.2018 03:00:00 - - - - - - - - - -
24.06.2018 02:00:00 18,0 3,7 - 32 18 - - ENE 1016,8 20
24.06.2018 01:00:00 - - - - - - - - - -
24.06.2018 00:00:00 - - - - - - - - - -
23.06.2018 23:00:00 19,0 3,6 - 29 16 - - ENE 1016,7 20
23.06.2018 22:00:00 19,7 3,9 - 29 16 - - ENE 1016,6 50
23.06.2018 21:00:00 20,9 3,0 - 29 16 - - ENE 1015,8 50
23.06.2018 20:00:00 22,0 3,1 - 29 16 - - ENE 1015,3 50
23.06.2018 19:00:00 - - - - - - - - - -
23.06.2018 18:00:00 - - - - - - - - - -
23.06.2018 17:00:00 24,4 5,7 - 11 6 - - SW 1015,5 50
23.06.2018 16:00:00 23,7 1,5 - 18 10 - - ENE 1015,8 50
23.06.2018 15:00:00 23,4 1,3 - 22 12 - - ENE 1016,4 50
23.06.2018 14:00:00 23,5 2,1 22,0 25 14 - - NNE 1016,7 50
23.06.2018 13:00:00 23,0 21,7 - 29 16 - - ENE 1017,0 50
23.06.2018 12:00:00 22,3 0,8 - 29 16 - - ENE 1017,6 50
23.06.2018 11:00:00 21,5 2,5 - 32 18 - - NE 1017,4 50
23.06.2018 10:00:00 20,7 2,0 - 36 19 76 41 NE 1017,4 50
23.06.2018 09:00:00 19,9 1,9 - 43 23 83 45 ENE 1017,3 50
23.06.2018 08:00:00 18,8 1,8 21,5 43 23 - - ENE 1017,1 50
23.06.2018 07:00:00 18,4 1,8 - 40 21 68 37 ENE 1016,8 50
23.06.2018 06:00:00 18,0 2,3 - 32 18 65 35 ENE 1016,8 50
23.06.2018 05:00:00 17,8 2,3 - 32 18 - - ENE 1016,2 50
23.06.2018 04:00:00 - - - - - - - - - -
23.06.2018 03:00:00 - - - - - - - - - -
23.06.2018 02:00:00 19,0 2,2 - 50 27 - - ENE 1014,8 20
23.06.2018 01:00:00 - - - - - - - - - -
23.06.2018 00:00:00 - - - - - - - - - -
22.06.2018 23:00:00 18,5 8,7 - 29 16 - - ENE 1014,4 20
22.06.2018 22:00:00 18,4 8,4 - 47 25 83 45 ENE 1013,3 20
22.06.2018 21:00:00 18,4 10,7 - 36 19 - - ENE 1013,2 40
22.06.2018 20:00:00 18,1 11,9 - 40 21 - - ENE 1012,5 35
22.06.2018 19:00:00 - - - - - - - - - -
22.06.2018 18:00:00 - - - - - - - - - -
22.06.2018 17:00:00 21,2 14,1 - 18 10 - - ENE 1011,9 40
22.06.2018 16:00:00 21,2 17,2 - 14 8 - - E 1011,8 35
22.06.2018 15:00:00 19,5 16,4 - 29 16 - - ENE 1011,9 12
22.06.2018 14:00:00 19,8 17,6 22,5 25 14 - - ENE 1012,3 4,0
22.06.2018 13:00:00 22,7 17,7 - 18 10 - - N 1012,3 10
22.06.2018 12:00:00 28,4 17,9 - 11 6 - - S 1012,2 30
22.06.2018 11:00:00 28,6 19,0 - 14 8 - - S 1011,7 20
22.06.2018 10:00:00 27,7 18,7 - 11 6 - - SSW 1011,8 30
22.06.2018 09:00:00 26,8 18,9 - 11 6 - - SSE 1012,0 25
22.06.2018 08:00:00 25,5 17,4 22,8 7 4 - - SSE 1012,1 20
22.06.2018 07:00:00 23,4 17,0 - 11 6 - - NE 1012,2 25
22.06.2018 06:00:00 22,5 16,8 - 7 4 - - NNE 1012,3 40
22.06.2018 05:00:00 22,6 17,1 - 11 6 - - ENE 1012,1 25
22.06.2018 04:00:00 - - - - - - - - - -
22.06.2018 03:00:00 - - - - - - - - - -
22.06.2018 02:00:00 23,3 17,5 - 7 4 - - ENE 1012,9 20
22.06.2018 01:00:00 - - - - - - - - - -
22.06.2018 00:00:00 - - - - - - - - - -
21.06.2018 23:00:00 25,4 15,7 - 7 4 - - SSE 1013,8 20
21.06.2018 22:00:00 25,3 15,6 - 0 0 - - N 1013,8 20
21.06.2018 21:00:00 25,5 18,4 - 7 4 - - SE 1013,4 30
21.06.2018 20:00:00 26,6 17,6 - 7 4 - - SSW 1012,7 35
21.06.2018 19:00:00 - - - - - - - - - -
21.06.2018 18:00:00 - - - - - - - - - -
21.06.2018 17:00:00 28,6 18,1 - 11 6 - - WSW 1013,1 40
21.06.2018 16:00:00 29,3 18,9 - 11 6 - - WSW 1013,7 40
21.06.2018 15:00:00 30,0 19,1 - 18 10 - - WSW 1013,8 40
21.06.2018 14:00:00 30,0 19,8 23,0 14 8 - - SW 1014,5 30
21.06.2018 13:00:00 29,8 18,5 - 14 8 - - WSW 1015,0 30
21.06.2018 12:00:00 29,4 17,3 - 11 6 - - SSW 1015,5 30
21.06.2018 11:00:00 28,6 18,9 - 11 6 - - SW 1015,8 25
21.06.2018 10:00:00 28,1 17,5 - 7 4 - - S 1015,9 25
21.06.2018 09:00:00 26,0 17,6 - 7 4 - - E 1016,1 30
21.06.2018 08:00:00 24,8 17,9 22,0 4 2 - - ENE 1016,3 35
21.06.2018 07:00:00 24,2 18,5 - 4 2 - - WSW 1016,0 40
21.06.2018 06:00:00 24,0 15,6 - 14 8 - - ENE 1015,9 40
21.06.2018 05:00:00 23,8 15,4 - 7 4 - - E 1015,8 40
21.06.2018 04:00:00 - - - - - - - - - -
21.06.2018 03:00:00 - - - - - - - - - -
21.06.2018 02:00:00 24,5 16,0 - 7 4 - - ENE 1016,1 20
21.06.2018 01:00:00 - - - - - - - - - -
21.06.2018 00:00:00 - - - - - - - - - -
20.06.2018 23:00:00 26,2 15,2 - 4 2 - - WNW 1017,3 20
20.06.2018 22:00:00 26,2 15,2 - 7 4 - - NW 1017,3 20
20.06.2018 21:00:00 26,9 15,7 - 7 4 - - WNW 1016,7 30
20.06.2018 20:00:00 27,8 16,4 - 4 2 - - N 1016,6 40
20.06.2018 19:00:00 - - - - - - - - - -
20.06.2018 18:00:00 - - - - - - - - - -
20.06.2018 17:00:00 30,3 13,8 - 14 8 - - WSW 1016,7 40
20.06.2018 16:00:00 31,0 13,9 - 18 10 - - WSW 1016,7 40
20.06.2018 15:00:00 31,4 14,3 - 11 6 - - WSW 1017,2 40
20.06.2018 14:00:00 31,3 14,3 23,4 18 10 - - WSW 1017,7 40
20.06.2018 13:00:00 31,4 14,6 - 14 8 - - WSW 1018,0 40
20.06.2018 12:00:00 30,6 14,6 - 11 6 - - SW 1018,3 40
20.06.2018 11:00:00 30,0 17,3 - 7 4 - - SSW 1018,4 40
20.06.2018 10:00:00 28,8 15,7 - 7 4 - - S 1018,4 40
20.06.2018 09:00:00 27,2 15,9 - 7 4 - - SSW 1018,4 40
20.06.2018 08:00:00 26,4 15,2 22,0 7 4 - - ENE 1018,0 40
20.06.2018 07:00:00 25,4 14,0 - 7 4 - - ENE 1017,7 40
20.06.2018 06:00:00 24,6 13,4 - 11 6 - - ENE 1017,3 40
20.06.2018 05:00:00 24,5 13,1 - 18 10 - - ENE 1016,9 30
20.06.2018 04:00:00 - - - - - - - - - -
20.06.2018 03:00:00 - - - - - - - - - -
20.06.2018 02:00:00 25,1 13,0 - 22 12 - - ENE 1016,7 20
20.06.2018 01:00:00 - - - - - - - - - -
20.06.2018 00:00:00 - - - - - - - - - -
19.06.2018 23:00:00 24,9 13,4 - 32 18 - - NE 1016,6 20
19.06.2018 22:00:00 24,9 13,4 - 32 18 - - ENE 1016,4 20
19.06.2018 21:00:00 25,4 13,2 - 25 14 - - ENE 1015,7 40
19.06.2018 20:00:00 26,0 13,2 - 32 18 - - NE 1015,2 50
19.06.2018 19:00:00 - - - - - - - - - -
19.06.2018 18:00:00 - - - - - - - - - -
19.06.2018 17:00:00 26,5 13,3 - 36 19 - - NNE 1015,1 50
19.06.2018 16:00:00 27,6 13,3 - 36 19 - - NE 1015,3 45
19.06.2018 15:00:00 27,2 13,6 - 32 18 65 35 NNE 1015,6 45
19.06.2018 14:00:00 27,4 13,3 23,0 36 19 - - NNE 1015,6 45
19.06.2018 13:00:00 27,2 13,4 - 40 21 61 33 NNE 1015,9 40
19.06.2018 12:00:00 25,6 12,5 - 29 16 65 35 NE 1016,3 40
19.06.2018 11:00:00 25,5 12,8 - 32 18 - - NNE 1016,0 45
19.06.2018 10:00:00 25,3 12,9 - 32 18 - - NE 1015,8 45
19.06.2018 09:00:00 25,2 13,2 - 32 18 68 37 ENE 1015,7 50
19.06.2018 08:00:00 24,6 13,6 22,5 22 12 - - NNE 1015,3 50
19.06.2018 07:00:00 24,8 12,9 - 29 16 - - ENE 1014,6 50
19.06.2018 06:00:00 24,1 12,4 - 29 16 - - ENE 1014,4 50
19.06.2018 05:00:00 24,0 12,2 - 25 14 - - ENE 1014,0 40
19.06.2018 04:00:00 - - - - - - - - - -
19.06.2018 03:00:00 - - - - - - - - - -
19.06.2018 02:00:00 24,5 12,1 - 29 16 - - ENE 1013,5 20

tt = Température de l'air
td = dewpoint
tw = water temperature
ff = Vitesse du vent
fx = gusts
dd = Direction du vent
ppp = reduced air pressure
vv = visibility

stations d'obs. à proximité